Le nostre stazioni meteo in Italia

Pubblicità
Il mio iltempo24.it
Fyvie castle, Gran Bretagna (99010): Temperatura & dewpoint: 21.02.2017 22:00:00 - 27.02.2017 22:00:00 (GMT)Fyvie castle, Gran Bretagna (99010): precipitazioni: 21.02.2017 22:00:00 - 27.02.2017 22:00:00 (GMT)
Data & Tempo tt [°C] td [°C] rr [mm]
27.02.2017 22:00:00 - - -
27.02.2017 21:00:00 -2,0 -2,5 0,0
27.02.2017 20:00:00 -1,6 -2,8 0,0
27.02.2017 19:00:00 0,4 -2,4 0,0
27.02.2017 18:00:00 2,1 -1,7 0,0
27.02.2017 17:00:00 4,4 -2,6 0,0
27.02.2017 16:00:00 5,9 -3,9 0,0
27.02.2017 15:00:00 7,5 -1,3 0,0
27.02.2017 14:00:00 7,4 -1,6 0,0
27.02.2017 13:00:00 6,6 -1,8 0,0
27.02.2017 12:00:00 6,8 -2,3 0,0
27.02.2017 11:00:00 5,8 -2,1 0,0
27.02.2017 10:00:00 3,4 -1,0 0,0
27.02.2017 09:00:00 1,2 -1,6 0,0
27.02.2017 08:00:00 -0,7 -1,4 0,0
27.02.2017 07:00:00 -1,8 -2,5 0,0
27.02.2017 06:00:00 -0,9 -2,3 0,0
27.02.2017 05:00:00 0,2 -2,0 0,0
27.02.2017 04:00:00 0,5 -2,3 0,0
27.02.2017 03:00:00 2,9 -1,9 0,0
27.02.2017 02:00:00 3,0 -1,0 0,0
27.02.2017 01:00:00 3,7 -0,5 0,0
27.02.2017 00:00:00 3,7 -0,6 0,0
26.02.2017 23:00:00 4,2 -0,2 0,2
26.02.2017 22:00:00 4,7 0,4 0,0
26.02.2017 21:00:00 4,6 1,4 0,0
26.02.2017 20:00:00 4,7 2,4 0,0
26.02.2017 19:00:00 6,1 3,4 0,0
26.02.2017 18:00:00 6,3 4,3 0,0
26.02.2017 17:00:00 7,7 7,1 1,0
26.02.2017 16:00:00 7,3 6,7 1,4
26.02.2017 15:00:00 7,9 6,1 0,8
26.02.2017 14:00:00 9,5 4,6 0,0
26.02.2017 13:00:00 9,6 4,3 0,0
26.02.2017 12:00:00 9,2 4,1 0,0
26.02.2017 11:00:00 8,7 4,1 0,0
26.02.2017 10:00:00 6,8 3,2 0,0
26.02.2017 09:00:00 5,2 2,7 0,0
26.02.2017 08:00:00 4,3 2,1 0,0
26.02.2017 07:00:00 3,2 1,3 0,0
26.02.2017 06:00:00 1,0 0,7 0,0
26.02.2017 05:00:00 -0,4 -0,8 0,0
26.02.2017 04:00:00 0,3 -0,3 0,0
26.02.2017 03:00:00 1,2 0,0 0,0
26.02.2017 02:00:00 2,9 1,2 0,0
26.02.2017 01:00:00 3,5 2,0 0,0
26.02.2017 00:00:00 2,4 1,7 0,0
25.02.2017 23:00:00 2,2 1,7 0,0
25.02.2017 22:00:00 2,4 1,8 0,0
25.02.2017 21:00:00 2,3 1,8 0,0
25.02.2017 20:00:00 2,3 1,2 0,0
25.02.2017 19:00:00 3,8 1,4 0,0
25.02.2017 18:00:00 5,6 2,4 0,0
25.02.2017 17:00:00 8,1 3,8 0,0
25.02.2017 16:00:00 8,9 3,9 0,0
25.02.2017 15:00:00 9,7 6,1 0,2
25.02.2017 14:00:00 8,7 6,0 0,0
25.02.2017 13:00:00 10,4 7,7 0,0
25.02.2017 12:00:00 12,5 7,0 0,0
25.02.2017 11:00:00 12,1 6,0 0,0
25.02.2017 10:00:00 10,7 5,3 0,0
25.02.2017 09:00:00 9,3 5,2 0,0
25.02.2017 08:00:00 8,0 5,2 0,0
25.02.2017 07:00:00 7,8 4,9 0,0
25.02.2017 06:00:00 7,2 5,0 0,0
25.02.2017 05:00:00 6,7 4,9 0,0
25.02.2017 04:00:00 6,3 4,2 0,0
25.02.2017 03:00:00 6,1 3,7 0,0
25.02.2017 02:00:00 5,0 3,4 0,0
25.02.2017 01:00:00 4,7 3,0 0,0
25.02.2017 00:00:00 3,9 2,5 0,0
24.02.2017 23:00:00 3,5 2,1 0,4
24.02.2017 22:00:00 3,1 2,2 1,2
24.02.2017 21:00:00 2,5 1,7 0,6
24.02.2017 20:00:00 2,6 1,7 0,8
24.02.2017 19:00:00 3,4 1,2 0,0
24.02.2017 18:00:00 3,8 0,5 0,0
24.02.2017 17:00:00 4,0 0,4 0,0
24.02.2017 16:00:00 4,7 0,1 0,0
24.02.2017 15:00:00 5,1 -0,2 0,0
24.02.2017 14:00:00 5,6 -0,4 0,0
24.02.2017 13:00:00 5,6 -0,6 0,0
24.02.2017 12:00:00 4,5 -0,5 0,0
24.02.2017 11:00:00 3,8 -0,8 0,2
24.02.2017 10:00:00 0,9 0,6 0,0
24.02.2017 09:00:00 -1,9 -2,1 0,0
24.02.2017 08:00:00 -2,4 -3,3 0,0
24.02.2017 07:00:00 -1,8 -2,1 0,0
24.02.2017 06:00:00 -2,4 -2,8 0,0
24.02.2017 05:00:00 -1,0 -1,6 0,0
24.02.2017 04:00:00 -1,0 -1,7 0,0
24.02.2017 03:00:00 -0,3 -1,0 0,0
24.02.2017 02:00:00 -1,1 -1,4 0,0
24.02.2017 01:00:00 -0,8 -1,2 0,0
24.02.2017 00:00:00 -1,2 -1,6 0,0
23.02.2017 23:00:00 -1,5 -1,8 0,0
23.02.2017 22:00:00 -1,1 -1,8 0,0
23.02.2017 21:00:00 -1,3 -1,9 0,0
23.02.2017 20:00:00 -0,4 -1,5 0,0
23.02.2017 19:00:00 1,4 -1,0 0,0
23.02.2017 18:00:00 2,7 -1,3 0,0
23.02.2017 17:00:00 3,6 -0,3 0,0
23.02.2017 16:00:00 4,2 -0,2 0,0
23.02.2017 15:00:00 4,2 0,2 0,0
23.02.2017 14:00:00 4,2 1,5 0,0
23.02.2017 13:00:00 3,2 2,4 0,4
23.02.2017 12:00:00 3,1 2,5 2,4
23.02.2017 11:00:00 1,9 1,7 2,6
23.02.2017 10:00:00 0,7 0,6 0,6
23.02.2017 09:00:00 0,4 0,3 0,2
23.02.2017 08:00:00 1,4 1,0 1,4
23.02.2017 07:00:00 2,3 1,9 0,6
23.02.2017 06:00:00 0,7 0,4 0,8
23.02.2017 05:00:00 0,4 -0,2 0,0
23.02.2017 04:00:00 0,2 -0,6 0,0
23.02.2017 03:00:00 0,3 -0,7 0,0
23.02.2017 02:00:00 0,8 -0,4 0,0
23.02.2017 01:00:00 1,3 -0,4 0,0
23.02.2017 00:00:00 1,4 -0,5 0,0
22.02.2017 23:00:00 2,3 -0,2 0,0
22.02.2017 22:00:00 3,1 -0,1 0,0
22.02.2017 21:00:00 3,1 0,1 0,0
22.02.2017 20:00:00 3,7 0,2 0,0
22.02.2017 19:00:00 4,4 0,5 0,0
22.02.2017 18:00:00 4,9 0,3 0,0
22.02.2017 17:00:00 5,5 0,7 0,0
22.02.2017 16:00:00 7,1 0,2 0,0
22.02.2017 15:00:00 7,6 1,1 0,0
22.02.2017 14:00:00 7,6 1,4 0,0
22.02.2017 13:00:00 7,3 1,3 0,0
22.02.2017 12:00:00 7,1 1,1 0,0
22.02.2017 11:00:00 7,0 0,7 0,0
22.02.2017 10:00:00 5,7 0,9 0,0
22.02.2017 09:00:00 5,0 0,6 0,0
22.02.2017 08:00:00 4,2 1,3 0,0
22.02.2017 07:00:00 4,5 0,4 0,0
22.02.2017 06:00:00 4,7 0,4 0,0
22.02.2017 05:00:00 4,9 -0,2 0,0
22.02.2017 04:00:00 4,5 -0,2 0,0
22.02.2017 03:00:00 4,7 -0,5 0,0
22.02.2017 02:00:00 4,8 -0,6 0,0
22.02.2017 01:00:00 4,6 -0,4 0,0
22.02.2017 00:00:00 4,8 0,7 0,0
21.02.2017 23:00:00 5,5 1,7 0,0
21.02.2017 22:00:00 6,6 3,6 0,4

tt = Temperatura
td = dewpoint
rr = precipitazioni

Stazioni seguenti

WeatherPro
AMSI
MeteoEarth